EW4399 Weather Reports


time (UTC)temp
C
wind
direction
speed
KPH
gust
KPH
rain 1hr
cm
rain 24hr
cm
rain mn
cm
humidity
%
barometer
mb
20260505070014 5 232 8.0 19.3 0.00 0.10 0.00 88 1009.3
20260505064509 5 216 8.0 17.7 0.00 0.18 0.00 88 1009.0
20260505063007 5 202 9.7 22.5 0.00 0.18 0.00 88 1008.7
20260505061505 5 221 12.9 22.5 0.00 0.18 0.00 88 1008.4
20260505060104 4 263 11.3 25.7 0.00 0.18 0.00 89 1008.1
20260505054606 4 238 12.9 25.7 0.00 0.23 0.00 89 1007.9
20260505053111 4 197 9.7 24.1 0.00 0.23 0.00 89 1007.9
20260505051554 4 225 9.7 16.1 0.00 0.23 0.00 89 1007.6
20260505041607 4 211 8.0 17.7 0.00 0.25 0.00 90 1007.0
20260505040041 3 226 9.7 17.7 0.00 0.25 0.00 89 1006.9
20260505034542 3 228 8.0 19.3 0.00 0.46 0.00 89 1006.8
20260505033037 4 234 12.9 19.3 0.00 0.46 0.00 88 1006.7
20260505031533 4 194 11.3 16.1 0.00 0.46 0.00 88 1006.4
20260505030029 4 219 8.0 16.1 0.00 0.46 0.00 87 1006.2
20260505024539 5 222 8.0 14.5 0.00 0.71 0.46 86 1005.9
20260505023023 5 225 9.7 17.7 0.00 0.71 0.46 86 1005.7
20260505021522 5 220 9.7 19.3 0.00 0.71 0.46 85 1005.6
20260505020021 5 199 8.0 16.1 0.00 0.71 0.46 84 1005.5
20260505014519 6 178 9.7 19.3 0.00 1.02 0.46 83 1005.4
20260505013023 6 205 8.0 16.1 0.00 1.02 0.46 83 1005.4
20260505011518 6 190 6.4 12.9 0.00 1.02 0.46 82 1005.3
20260505010017 6 207 4.8 11.3 0.00 1.02 0.46 80 1005.1
20260505004517 6 225 4.8 11.3 0.00 1.30 0.46 79 1004.9
20260505003016 6 224 9.7 19.3 0.00 1.30 0.46 78 1005.2
20260505001515 6 226 8.0 16.1 0.00 1.30 0.46 78 1004.9
20260505000026 6 238 9.7 14.5 0.00 1.30 0.46 77 1004.6
20260504234508 6 207 11.3 19.3 0.00 1.57 0.46 76 1004.2
20260504233005 7 200 9.7 20.9 0.00 1.57 0.46 74 1003.9
20260504231515 7 227 8.0 22.5 0.00 1.57 0.46 74 1003.6
20260504230003 7 173 11.3 19.3 0.00 1.57 0.46 73 1003.6
20260504224501 7 216 8.0 16.1 0.00 1.83 0.46 71 1003.5
20260504223100 7 196 9.7 19.3 0.00 1.83 0.46 69 1003.3
20260504221607 8 222 12.9 22.5 0.00 1.83 0.46 68 1003.1
20260504220056 8 221 12.9 25.7 0.00 1.83 0.46 69 1003.0
20260504214554 9 150 8.0 29.0 0.00 2.01 0.46 65 1002.6
20260504213053 12 198 14.5 45.1 0.00 2.01 0.46 54 1002.6
20260504211552 13 237 19.3 37.0 0.00 2.01 0.46 47 1002.2
20260504210105 13 202 20.9 35.4 0.00 2.01 0.46 47 1002.1
20260504204553 13 248 12.9 37.0 0.00 2.11 0.46 52 1001.8
20260504203047 12 215 22.5 41.8 0.00 2.11 0.46 55 1001.6
20260504201547 12 223 19.3 35.4 0.00 2.11 0.46 59 1001.2
20260504200038 12 261 17.7 33.8 0.00 2.11 0.46 56 1001.0
20260504194556 13 360 16.1 30.6 0.00 2.13 0.46 56 1000.6
20260504193032 12 281 19.3 40.2 0.00 2.13 0.46 56 1000.4
20260504191541 12 204 22.5 37.0 0.00 2.13 0.46 58 1000.4
20260504190032 12 265 19.3 32.2 0.00 2.13 0.46 61 1000.2
20260504184533 12 246 25.7 45.1 0.00 2.16 0.46 60 1000.1
20260504183021 11 255 24.1 56.3 0.00 2.16 0.46 62 1000.0
20260504181518 11 265 25.7 57.9 0.00 2.16 0.46 66 999.8
20260504180019 11 302 19.3 45.1 0.00 2.16 0.46 69 999.9
20260504174510 10 266 24.1 53.1 0.00 2.16 0.46 69 999.7
20260504173014 10 227 17.7 45.1 0.00 2.16 0.46 72 999.4
20260504171506 9 239 22.5 49.9 0.00 2.16 0.46 73 999.2
20260504120114 3 218 27.4 56.3 0.05 2.13 0.43 91 990.2
20260504081513 3 252 20.9 49.9 0.03 2.11 0.41 93 980.3